DELTA 1 DEB

Satellite information

Favourite Embed

Satellite Type and Status

DEBRISIN ORBIT

Key statistics

Satellite DELTA 1 DEB at a glance.

Uptime

18448

Days in orbit

Revolutions

≈ 12.7

Per day

Orbit

SSO

Sun Synchronous Orbit

Inclination

99.6

Latest

Satellite identification and parameters

Extended collection of information and parameters for DELTA 1 DEB.

Object identification

Identified? True

Debris? True

Object name: DELTA 1 DEB

International designator: 1975-052LR

Object number (NORAD): 42632

Object ID (CCSDS): 42632

Country: UNITED STATES OF AMERICA (US)

Current information (Y/N): Y

RCS size: SMALL

Orbital parameters

Period: 113.383 minutes

Inclination: 99.5971 deg

SMA: 7759.952 km

Apoapsis: 1691.969 km

Periapsis: 1071.666 km

RAAN: 58.7281 deg

Eccentricy: 0.03996824

Argument of periapsis: 124.0204 deg

Mean anomaly: 239.9521 deg

Mean motion: 12.70030571 rev/day

Mean motion (dot): -0.00000117 rev/day2

B* drag term: -0.00031229828 1/REarth

Two-line elements (TLE)

Creation date: Nov. 22, 2025, 6:56 p.m.

Reference frame: TEME

Reference center: EARTH

Epoch: Nov. 21, 2025, 5:47 a.m. UTC

TLE line 0: 0 DELTA 1 DEB

TLE line 1: 1 42632U 75052LR 25325.24135659 -.00000117 00000-0 -31230-3 0 9991

TLE line 2: 2 42632 99.5971 58.7281 0399682 124.0204 239.9521 12.70030571513927

Live tracking on map

Real-time ground track for satellite DELTA 1 DEB.

In-orbit conjunctions

A list of the most updated potential collisions computed for object DELTA 1 DEB.

Target Orbit TCA Probability of collision Miss distance Type
NIMBUS 6 SSO 2025-01-05 15:31:04 0.001147045 41.0 (m) PAYLOAD

Associated space launch

Experimental meteorological satellite

DELTA 1 DEB was lifted into orbit during the mission ‘Delta 2910 | Nimbus 6’, on board a Delta 2910 space rocket.

The launch took place on June 12, 1975, 8:12 a.m. from Space Launch Complex 2W.

For more information about the launch, click the button.

Launch to space Delta 2910 | Nimbus 6
Delta 2910 | Nimbus 6

Agency: N/A

Status: Launch Successful

Launch date: June 12, 1975, 8:12 a.m. UTC

Rocket: Delta 2910

Launch pad: Space Launch Complex 2W

Location: Vandenberg SFB, CA, USA

...

Latest news about this satellite

There are no fresh news available about this satellite. Check back as we update our databases every day.


Newsletter sign-up

Weekly statistics, charts and insights to help you stay on top of the space industry.